Time,TemperatureF,DewpointF,PressureIn,WindDirection,WindDirectionDegrees,WindSpeedMPH,WindSpeedGustMPH,Humidity,HourlyPrecipIn,Conditions,Clouds,dailyrainin,SoftwareType,DateUTC
2013-02-17 00:00:00,32.1,19.0,29.73,NNE,28,3.0,12.0,58,0.00,,---,0.03,VWS V14.01,2013-02-17 05:00:00,
2013-02-17 00:05:00,32.1,19.0,29.72,NNE,13,7.0,7.0,58,0.00,,---,0.00,VWS V14.01,2013-02-17 05:05:00,
2013-02-17 00:10:00,32.0,18.5,29.73,NNE,22,1.0,10.0,57,0.00,,---,0.00,VWS V14.01,2013-02-17 05:10:00,
2013-02-17 00:15:00,32.0,18.9,29.73,North,350,0.0,10.0,58,0.00,,---,0.00,VWS V14.01,2013-02-17 05:15:00,
2013-02-17 00:20:00,32.0,18.5,29.73,NNE,21,5.0,10.0,57,0.00,,---,0.00,VWS V14.01,2013-02-17 05:20:00,
2013-02-17 00:25:00,31.9,18.4,29.73,NNE,19,2.0,10.0,57,0.00,,---,0.00,VWS V14.01,2013-02-17 05:25:00,
2013-02-17 00:30:00,31.9,18.4,29.73,North,355,0.0,10.0,57,0.00,,---,0.00,VWS V14.01,2013-02-17 05:30:00,
2013-02-17 00:35:00,31.9,18.4,29.73,North,10,0.0,10.0,57,0.00,,---,0.00,VWS V14.01,2013-02-17 05:35:00,
2013-02-17 00:40:00,31.9,18.4,29.72,NNE,18,5.0,10.0,57,0.00,,---,0.00,VWS V14.01,2013-02-17 05:40:00,
2013-02-17 00:45:00,31.9,18.0,29.72,NNE,33,4.0,11.0,56,0.00,,---,0.00,VWS V14.01,2013-02-17 05:45:00,
2013-02-17 00:50:00,31.9,18.4,29.73,NNW,342,3.0,11.0,57,0.00,,---,0.00,VWS V14.01,2013-02-17 05:50:00,
2013-02-17 00:55:00,31.9,18.4,29.72,North,355,5.0,11.0,57,0.00,,---,0.00,VWS V14.01,2013-02-17 05:55:00,
2013-02-17 01:00:00,31.8,17.9,29.72,North,11,3.0,15.0,56,0.00,,---,0.00,VWS V14.01,2013-02-17 06:00:00,
2013-02-17 01:05:00,31.8,17.9,29.70,North,351,6.0,10.0,56,0.00,,---,0.00,VWS V14.01,2013-02-17 06:05:00,
2013-02-17 01:10:00,31.7,17.4,29.71,NNE,33,2.0,10.0,55,0.00,,---,0.00,VWS V14.01,2013-02-17 06:10:00,
2013-02-17 01:15:00,31.6,17.7,29.71,NNE,19,7.0,10.0,56,0.00,,---,0.00,VWS V14.01,2013-02-17 06:15:00,
2013-02-17 01:20:00,31.5,17.2,29.71,North,350,3.0,10.0,55,0.00,,---,0.00,VWS V14.01,2013-02-17 06:20:00,
2013-02-17 01:25:00,31.5,17.2,29.70,NE,41,3.0,14.0,55,0.00,,---,0.00,VWS V14.01,2013-02-17 06:25:00,
2013-02-17 01:30:00,31.3,17.0,29.70,North,355,5.0,14.0,55,0.00,,---,0.00,VWS V14.01,2013-02-17 06:30:00,
2013-02-17 01:35:00,31.2,16.9,29.71,NNE,20,0.0,8.0,55,0.00,,---,0.00,VWS V14.01,2013-02-17 06:35:00,
2013-02-17 01:40:00,31.1,16.4,29.70,East,81,4.0,18.0,54,0.00,,---,0.00,VWS V14.01,2013-02-17 06:40:00,
2013-02-17 01:45:00,31.0,16.3,29.71,North,355,5.0,18.0,54,0.00,,---,0.00,VWS V14.01,2013-02-17 06:45:00,
2013-02-17 01:50:00,30.9,16.2,29.71,North,360,6.0,18.0,54,0.00,,---,0.00,VWS V14.01,2013-02-17 06:50:00,
2013-02-17 01:55:00,30.9,16.2,29.71,North,355,10.0,18.0,54,0.00,,---,0.00,VWS V14.01,2013-02-17 06:55:00,
2013-02-17 02:00:00,30.8,16.1,29.71,NNE,15,2.0,18.0,54,0.00,,---,0.00,VWS V14.01,2013-02-17 07:00:00,
2013-02-17 02:05:00,30.8,16.1,29.71,North,351,5.0,5.0,54,0.00,,---,0.00,VWS V14.01,2013-02-17 07:05:00,
2013-02-17 02:10:00,30.7,16.0,29.71,North,355,5.0,5.0,54,0.00,,---,0.00,VWS V14.01,2013-02-17 07:10:00,
2013-02-17 02:15:00,30.7,15.6,29.71,North,360,2.0,8.0,53,0.00,,---,0.00,VWS V14.01,2013-02-17 07:15:00,
2013-02-17 02:20:00,30.6,15.5,29.71,NNE,22,2.0,14.0,53,0.00,,---,0.00,VWS V14.01,2013-02-17 07:20:00,
2013-02-17 02:25:00,30.5,15.0,29.71,North,9,9.0,14.0,52,0.00,,---,0.00,VWS V14.01,2013-02-17 07:25:00,
2013-02-17 02:30:00,30.3,14.4,29.70,NNW,339,2.0,14.0,51,0.00,,---,0.00,VWS V14.01,2013-02-17 07:30:00,
2013-02-17 02:35:00,30.3,14.4,29.70,NE,52,2.0,9.0,51,0.00,,---,0.00,VWS V14.01,2013-02-17 07:35:00,
2013-02-17 02:40:00,30.1,14.2,29.70,NE,42,5.0,15.0,51,0.00,,---,0.00,VWS V14.01,2013-02-17 07:40:00,
2013-02-17 02:45:00,30.0,13.6,29.70,NNE,19,11.0,15.0,50,0.00,,---,0.00,VWS V14.01,2013-02-17 07:45:00,
2013-02-17 02:50:00,29.9,13.5,29.70,NNE,18,0.0,15.0,50,0.00,,---,0.00,VWS V14.01,2013-02-17 07:50:00,
2013-02-17 02:55:00,29.9,13.5,29.69,NNE,21,3.0,15.0,50,0.00,,---,0.00,VWS V14.01,2013-02-17 07:55:00,
2013-02-17 03:00:00,29.9,14.0,29.69,NNE,24,0.0,15.0,51,0.00,,---,0.00,VWS V14.01,2013-02-17 08:00:00,
2013-02-17 03:05:00,29.8,13.9,29.69,NNW,338,1.0,10.0,51,0.00,,---,0.00,VWS V14.01,2013-02-17 08:05:00,
2013-02-17 03:10:00,29.7,13.8,29.68,North,355,4.0,10.0,51,0.00,,---,0.00,VWS V14.01,2013-02-17 08:10:00,
2013-02-17 03:15:00,29.6,13.3,29.68,NE,55,14.0,22.0,50,0.00,,---,0.00,VWS V14.01,2013-02-17 08:15:00,
2013-02-17 03:20:00,29.5,13.2,29.69,NNE,24,11.0,22.0,50,0.00,,---,0.00,VWS V14.01,2013-02-17 08:20:00,
2013-02-17 03:25:00,29.5,13.2,29.69,WNW,302,6.0,22.0,50,0.00,,---,0.00,VWS V14.01,2013-02-17 08:25:00,
2013-02-17 03:30:00,29.4,13.1,29.69,North,11,4.0,22.0,50,0.00,,---,0.00,VWS V14.01,2013-02-17 08:30:00,
2013-02-17 03:35:00,29.4,13.1,29.69,North,360,5.0,9.0,50,0.00,,---,0.00,VWS V14.01,2013-02-17 08:35:00,
2013-02-17 03:40:00,29.3,13.0,29.69,North,355,2.0,10.0,50,0.00,,---,0.00,VWS V14.01,2013-02-17 08:40:00,
2013-02-17 03:45:00,29.3,13.0,29.69,NNE,15,1.0,11.0,50,0.00,,---,0.00,VWS V14.01,2013-02-17 08:45:00,
2013-02-17 03:50:00,29.2,13.3,29.69,NW,319,4.0,11.0,51,0.00,,---,0.00,VWS V14.01,2013-02-17 08:50:00,
2013-02-17 03:55:00,29.1,13.2,29.69,North,5,3.0,11.0,51,0.00,,---,0.00,VWS V14.01,2013-02-17 08:55:00,
2013-02-17 04:00:00,29.0,12.7,29.69,North,9,7.0,12.0,50,0.00,,---,0.00,VWS V14.01,2013-02-17 09:00:00,
2013-02-17 04:05:00,29.0,13.1,29.69,NNE,17,4.0,5.0,51,0.00,,---,0.00,VWS V14.01,2013-02-17 09:05:00,
2013-02-17 04:10:00,29.0,13.1,29.69,NNE,21,1.0,5.0,51,0.00,,---,0.00,VWS V14.01,2013-02-17 09:10:00,
2013-02-17 04:15:00,28.9,13.5,29.69,North,9,4.0,8.0,52,0.00,,---,0.00,VWS V14.01,2013-02-17 09:15:00,
2013-02-17 04:20:00,28.8,13.4,29.69,North,9,3.0,14.0,52,0.00,,---,0.00,VWS V14.01,2013-02-17 09:20:00,
2013-02-17 04:25:00,28.7,13.3,29.69,North,10,2.0,14.0,52,0.00,,---,0.00,VWS V14.01,2013-02-17 09:25:00,
2013-02-17 04:30:00,28.6,13.6,29.69,NNE,18,3.0,14.0,53,0.00,,---,0.00,VWS V14.01,2013-02-17 09:30:00,
2013-02-17 04:35:00,28.5,13.1,29.68,North,360,3.0,12.0,52,0.00,,---,0.00,VWS V14.01,2013-02-17 09:35:00,
2013-02-17 04:40:00,28.4,13.0,29.68,North,360,0.0,12.0,52,0.00,,---,0.00,VWS V14.01,2013-02-17 09:40:00,
2013-02-17 04:45:00,28.3,12.9,29.68,NNE,19,1.0,15.0,52,0.00,,---,0.00,VWS V14.01,2013-02-17 09:45:00,
2013-02-17 04:50:00,28.3,12.9,29.67,North,5,1.0,15.0,52,0.00,,---,0.00,VWS V14.01,2013-02-17 09:50:00,
2013-02-17 04:55:00,28.2,12.9,29.67,North,5,1.0,15.0,52,0.00,,---,0.00,VWS V14.01,2013-02-17 09:55:00,
2013-02-17 05:00:00,28.1,12.8,29.67,North,355,0.0,15.0,52,0.00,,---,0.00,VWS V14.01,2013-02-17 10:00:00,
2013-02-17 05:05:00,28.1,13.2,29.68,NNE,12,6.0,13.0,53,0.00,,---,0.00,VWS V14.01,2013-02-17 10:05:00,
2013-02-17 05:10:00,28.0,13.1,29.68,North,350,3.0,13.0,53,0.00,,---,0.00,VWS V14.01,2013-02-17 10:10:00,
2013-02-17 05:15:00,28.0,13.1,29.68,NNW,338,5.0,15.0,53,0.00,,---,0.00,VWS V14.01,2013-02-17 10:15:00,
2013-02-17 05:20:00,27.9,13.0,29.68,North,5,0.0,15.0,53,0.00,,---,0.00,VWS V14.01,2013-02-17 10:20:00,
2013-02-17 05:25:00,27.9,13.0,29.68,NNW,348,3.0,15.0,53,0.00,,---,0.00,VWS V14.01,2013-02-17 10:25:00,
2013-02-17 05:30:00,27.8,12.9,29.67,WNW,291,14.0,16.0,53,0.00,,---,0.00,VWS V14.01,2013-02-17 10:30:00,
2013-02-17 05:35:00,27.8,12.9,29.67,WNW,298,2.0,7.0,53,0.00,,---,0.00,VWS V14.01,2013-02-17 10:35:00,
2013-02-17 05:40:00,27.8,12.9,29.67,NNW,333,5.0,12.0,53,0.00,,---,0.00,VWS V14.01,2013-02-17 10:40:00,
2013-02-17 05:45:00,27.7,12.8,29.67,NNW,345,1.0,12.0,53,0.00,,---,0.00,VWS V14.01,2013-02-17 10:45:00,
2013-02-17 05:50:00,27.6,13.1,29.67,NNE,28,0.0,12.0,54,0.00,,---,0.00,VWS V14.01,2013-02-17 10:50:00,
2013-02-17 05:55:00,27.6,13.1,29.67,NNE,17,3.0,12.0,54,0.00,,---,0.00,VWS V14.01,2013-02-17 10:55:00,
2013-02-17 06:00:00,27.6,12.7,29.67,NNW,347,0.0,12.0,53,0.00,,---,0.00,VWS V14.01,2013-02-17 11:00:00,
2013-02-17 06:05:00,27.6,12.7,29.67,NNW,343,0.0,13.0,53,0.00,,---,0.00,VWS V14.01,2013-02-17 11:05:00,
2013-02-17 06:10:00,27.6,12.7,29.67,North,10,0.0,13.0,53,0.00,,---,0.00,VWS V14.01,2013-02-17 11:10:00,
2013-02-17 06:15:00,27.6,13.1,29.67,WNW,301,0.0,13.0,54,0.00,,---,0.00,VWS V14.01,2013-02-17 11:15:00,
2013-02-17 06:20:00,27.5,13.1,29.66,NW,312,2.0,13.0,54,0.00,,---,0.00,VWS V14.01,2013-02-17 11:20:00,
2013-02-17 06:25:00,27.5,13.1,29.66,NNW,336,3.0,13.0,54,0.00,,---,0.00,VWS V14.01,2013-02-17 11:25:00,
2013-02-17 06:30:00,27.4,12.5,29.66,NNW,344,0.0,13.0,53,0.00,,---,0.00,VWS V14.01,2013-02-17 11:30:00,
2013-02-17 06:35:00,27.4,13.0,29.66,NNW,333,7.0,9.0,54,0.00,,---,0.00,VWS V14.01,2013-02-17 11:35:00,
2013-02-17 06:40:00,27.3,12.9,29.66,NNE,17,2.0,11.0,54,0.00,,---,0.00,VWS V14.01,2013-02-17 11:40:00,
2013-02-17 06:45:00,27.3,13.3,29.66,WNW,300,0.0,11.0,55,0.00,,---,0.00,VWS V14.01,2013-02-17 11:45:00,
2013-02-17 06:50:00,27.3,12.9,29.66,NNW,346,1.0,11.0,54,0.00,,---,0.00,VWS V14.01,2013-02-17 11:50:00,
2013-02-17 06:55:00,27.2,12.8,29.66,NNW,338,0.0,11.0,54,0.00,,---,0.00,VWS V14.01,2013-02-17 11:55:00,
2013-02-17 07:00:00,27.2,13.2,29.66,NNE,14,0.0,11.0,55,0.00,,---,0.00,VWS V14.01,2013-02-17 12:00:00,
2013-02-17 07:05:00,27.2,13.2,29.66,WSW,238,6.0,12.0,55,0.00,,---,0.00,VWS V14.01,2013-02-17 12:05:00,
2013-02-17 07:10:00,27.2,12.8,29.66,NNW,341,0.0,12.0,54,0.00,,---,0.00,VWS V14.01,2013-02-17 12:10:00,
2013-02-17 07:15:00,27.2,13.2,29.66,West,261,0.0,12.0,55,0.00,,---,0.00,VWS V14.01,2013-02-17 12:15:00,
2013-02-17 07:20:00,27.2,12.8,29.67,North,360,0.0,12.0,54,0.00,,---,0.00,VWS V14.01,2013-02-17 12:20:00,
2013-02-17 07:25:00,27.2,12.8,29.67,North,360,1.0,12.0,54,0.00,,---,0.00,VWS V14.01,2013-02-17 12:25:00,
2013-02-17 07:30:00,27.2,12.8,29.67,NW,311,8.0,14.0,54,0.00,,---,0.00,VWS V14.01,2013-02-17 12:30:00,
2013-02-17 07:35:00,27.2,13.2,29.67,NNW,335,0.0,3.0,55,0.00,,---,0.00,VWS V14.01,2013-02-17 12:35:00,
2013-02-17 07:40:00,27.2,13.2,29.67,West,261,0.0,8.0,55,0.00,,---,0.00,VWS V14.01,2013-02-17 12:40:00,
2013-02-17 07:45:00,27.3,13.3,29.67,NNW,333,2.0,8.0,55,0.00,,---,0.00,VWS V14.01,2013-02-17 12:45:00,
2013-02-17 07:50:00,27.3,13.3,29.67,North,355,0.0,8.0,55,0.00,,---,0.00,VWS V14.01,2013-02-17 12:50:00,
2013-02-17 07:55:00,27.4,13.4,29.67,West,276,2.0,15.0,55,0.00,,---,0.00,VWS V14.01,2013-02-17 12:55:00,
2013-02-17 08:00:00,27.4,13.0,29.67,NE,46,1.0,15.0,54,0.00,,---,0.00,VWS V14.01,2013-02-17 13:00:00,
2013-02-17 08:05:00,27.5,13.1,29.67,NNW,341,3.0,10.0,54,0.00,,---,0.00,VWS V14.01,2013-02-17 13:05:00,
2013-02-17 08:10:00,27.5,12.6,29.67,NNE,19,3.0,10.0,53,0.00,,---,0.00,VWS V14.01,2013-02-17 13:10:00,
2013-02-17 08:15:00,27.6,12.3,29.66,NW,309,2.0,10.0,52,0.00,,---,0.00,VWS V14.01,2013-02-17 13:15:00,
2013-02-17 08:20:00,27.6,12.3,29.66,NNW,343,4.0,10.0,52,0.00,,---,0.00,VWS V14.01,2013-02-17 13:20:00,
2013-02-17 08:24:00,27.7,12.4,29.66,NNE,16,2.0,10.0,52,0.00,,---,0.00,VWS V14.01,2013-02-17 13:24:00,
2013-02-17 08:30:00,27.8,12.0,29.66,WSW,254,0.0,10.0,51,0.00,,---,0.00,VWS V14.01,2013-02-17 13:30:00,
2013-02-17 08:34:00,27.9,11.7,29.65,NNE,22,3.0,7.0,50,0.00,,---,0.00,VWS V14.01,2013-02-17 13:34:00,
2013-02-17 08:39:00,28.0,11.8,29.65,NE,36,3.0,10.0,50,0.00,,---,0.00,VWS V14.01,2013-02-17 13:39:00,
2013-02-17 08:44:00,28.0,11.8,29.65,NW,322,1.0,10.0,50,0.00,,---,0.00,VWS V14.01,2013-02-17 13:44:00,
2013-02-17 08:49:00,28.1,11.4,29.65,NNE,25,3.0,10.0,49,0.00,,---,0.00,VWS V14.01,2013-02-17 13:49:00,
2013-02-17 08:54:00,28.2,11.5,29.65,North,11,4.0,16.0,49,0.00,,---,0.00,VWS V14.01,2013-02-17 13:54:00,
2013-02-17 08:59:00,28.3,12.1,29.65,NNE,18,0.0,16.0,50,0.00,,---,0.00,VWS V14.01,2013-02-17 13:59:00,
2013-02-17 09:04:00,28.6,11.9,29.65,NNE,16,6.0,12.0,49,0.00,,---,0.00,VWS V14.01,2013-02-17 14:04:00,
2013-02-17 09:09:00,28.7,12.0,29.65,North,360,0.0,12.0,49,0.00,,---,0.00,VWS V14.01,2013-02-17 14:09:00,
2013-02-17 09:14:00,29.0,11.8,29.65,NNW,329,3.0,12.0,48,0.00,,---,0.00,VWS V14.01,2013-02-17 14:14:00,
2013-02-17 09:19:00,29.2,12.0,29.65,ESE,107,4.0,12.0,48,0.00,,---,0.00,VWS V14.01,2013-02-17 14:19:00,
2013-02-17 09:24:00,29.4,11.2,29.64,NNW,344,10.0,13.0,46,0.00,,---,0.00,VWS V14.01,2013-02-17 14:24:00,
2013-02-17 09:29:00,29.6,11.4,29.64,SSW,197,5.0,13.0,46,0.00,,---,0.00,VWS V14.01,2013-02-17 14:29:00,
2013-02-17 09:34:00,29.8,11.6,29.64,North,350,5.0,9.0,46,0.00,,---,0.00,VWS V14.01,2013-02-17 14:34:00,
2013-02-17 09:39:00,30.1,11.8,29.64,West,267,3.0,9.0,46,0.00,,---,0.00,VWS V14.01,2013-02-17 14:39:00,
2013-02-17 09:44:00,30.5,12.2,29.64,WSW,244,10.0,19.0,46,0.00,,---,0.00,VWS V14.01,2013-02-17 14:44:00,
2013-02-17 09:49:00,30.7,11.9,29.64,NNW,333,6.0,19.0,45,0.00,,---,0.00,VWS V14.01,2013-02-17 14:49:00,
2013-02-17 09:54:00,31.1,12.2,29.64,West,267,3.0,19.0,45,0.00,,---,0.00,VWS V14.01,2013-02-17 14:54:00,
2013-02-17 09:59:00,31.1,11.8,29.64,North,355,3.0,19.0,44,0.00,,---,0.00,VWS V14.01,2013-02-17 14:59:00,
2013-02-17 10:04:00,31.2,11.3,29.64,West,260,4.0,15.0,43,0.00,,---,0.00,VWS V14.01,2013-02-17 15:04:00,
2013-02-17 10:09:00,31.4,12.0,29.64,SSW,196,1.0,15.0,44,0.00,,---,0.00,VWS V14.01,2013-02-17 15:09:00,
2013-02-17 10:14:00,31.7,11.8,29.64,WSW,254,1.0,15.0,43,0.00,,---,0.00,VWS V14.01,2013-02-17 15:14:00,
2013-02-17 10:19:00,31.9,12.0,29.64,NNW,336,1.0,16.0,43,0.00,,---,0.00,VWS V14.01,2013-02-17 15:19:00,
2013-02-17 10:24:00,31.8,11.9,29.64,West,275,9.0,17.0,43,0.00,,---,0.00,VWS V14.01,2013-02-17 15:24:00,
2013-02-17 10:29:00,32.0,12.1,29.64,West,264,4.0,17.0,43,0.00,,---,0.00,VWS V14.01,2013-02-17 15:29:00,
2013-02-17 10:34:00,32.1,11.6,29.65,WNW,294,4.0,19.0,42,0.00,,---,0.00,VWS V14.01,2013-02-17 15:34:00,
2013-02-17 10:39:00,32.0,11.5,29.65,NNW,342,2.0,21.0,42,0.00,,---,0.00,VWS V14.01,2013-02-17 15:39:00,
2013-02-17 10:44:00,32.3,11.8,29.65,NNW,337,2.0,21.0,42,0.00,,---,0.00,VWS V14.01,2013-02-17 15:44:00,
2013-02-17 10:49:00,32.6,11.5,29.66,North,5,5.0,21.0,41,0.00,,---,0.00,VWS V14.01,2013-02-17 15:49:00,
2013-02-17 10:54:00,33.0,12.4,29.66,West,281,7.0,21.0,42,0.00,,---,0.00,VWS V14.01,2013-02-17 15:54:00,
2013-02-17 10:59:00,33.1,12.0,29.66,SSW,213,11.0,21.0,41,0.00,,---,0.00,VWS V14.01,2013-02-17 15:59:00,
2013-02-17 11:04:00,33.2,12.6,29.66,NW,316,10.0,12.0,42,0.00,,---,0.00,VWS V14.01,2013-02-17 16:04:00,
2013-02-17 11:09:00,33.2,12.1,29.66,West,267,6.0,21.0,41,0.00,,---,0.00,VWS V14.01,2013-02-17 16:09:00,
2013-02-17 11:14:00,32.9,11.8,29.66,North,355,0.0,21.0,41,0.00,,---,0.00,VWS V14.01,2013-02-17 16:14:00,
2013-02-17 11:19:00,32.8,11.7,29.66,SW,230,5.0,21.0,41,0.00,,---,0.00,VWS V14.01,2013-02-17 16:19:00,
2013-02-17 11:24:00,32.5,11.4,29.66,NW,321,2.0,21.0,41,0.00,,---,0.00,VWS V14.01,2013-02-17 16:24:00,
2013-02-17 11:29:00,32.5,11.4,29.66,West,259,4.0,21.0,41,0.00,,---,0.00,VWS V14.01,2013-02-17 16:29:00,
2013-02-17 11:34:00,32.8,11.7,29.66,NNW,344,2.0,18.0,41,0.00,,---,0.00,VWS V14.01,2013-02-17 16:34:00,
2013-02-17 11:39:00,33.0,11.3,29.66,North,351,9.0,18.0,40,0.00,,---,0.00,VWS V14.01,2013-02-17 16:39:00,
2013-02-17 11:44:00,32.9,11.2,29.66,WSW,246,2.0,18.0,40,0.00,,---,0.00,VWS V14.01,2013-02-17 16:44:00,
2013-02-17 11:49:00,33.1,10.9,29.66,NW,307,1.0,20.0,39,0.00,,---,0.00,VWS V14.01,2013-02-17 16:49:00,
2013-02-17 11:54:00,33.3,11.0,29.67,NW,311,10.0,20.0,39,0.00,,---,0.00,VWS V14.01,2013-02-17 16:54:00,
2013-02-17 11:59:00,33.5,10.6,29.67,WSW,242,4.0,20.0,38,0.00,,---,0.00,VWS V14.01,2013-02-17 16:59:00,
2013-02-17 12:04:00,33.4,10.5,29.66,NNE,17,5.0,19.0,38,0.00,,---,0.00,VWS V14.01,2013-02-17 17:04:00,
2013-02-17 12:09:00,33.7,10.8,29.67,NNW,336,7.0,19.0,38,0.00,,---,0.00,VWS V14.01,2013-02-17 17:09:00,
2013-02-17 12:14:00,33.6,10.7,29.67,WSW,246,11.0,19.0,38,0.00,,---,0.00,VWS V14.01,2013-02-17 17:14:00,
2013-02-17 12:19:00,33.7,10.2,29.67,SW,219,5.0,19.0,37,0.00,,---,0.00,VWS V14.01,2013-02-17 17:19:00,
2013-02-17 12:24:00,34.0,11.7,29.67,NNW,341,4.0,19.0,39,0.00,,---,0.00,VWS V14.01,2013-02-17 17:24:00,
2013-02-17 12:29:00,34.4,11.4,29.67,North,351,8.0,20.0,38,0.00,,---,0.00,VWS V14.01,2013-02-17 17:29:00,
2013-02-17 12:34:00,34.4,11.4,29.67,West,269,3.0,10.0,38,0.00,,---,0.00,VWS V14.01,2013-02-17 17:34:00,
2013-02-17 12:39:00,34.6,11.6,29.67,West,274,5.0,13.0,38,0.00,,---,0.00,VWS V14.01,2013-02-17 17:39:00,
2013-02-17 12:44:00,34.4,10.8,29.67,WSW,240,4.0,23.0,37,0.00,,---,0.00,VWS V14.01,2013-02-17 17:44:00,
2013-02-17 12:49:00,33.9,10.4,29.67,NNE,19,5.0,23.0,37,0.00,,---,0.00,VWS V14.01,2013-02-17 17:49:00,
2013-02-17 12:54:00,33.9,11.0,29.68,NNE,13,5.0,23.0,38,0.00,,---,0.00,VWS V14.01,2013-02-17 17:54:00,
2013-02-17 12:59:00,34.1,10.6,29.67,NW,317,3.0,29.0,37,0.00,,---,0.00,VWS V14.01,2013-02-17 17:59:00,
2013-02-17 13:04:00,33.4,9.9,29.68,North,5,6.0,25.0,37,0.00,,---,0.00,VWS V14.01,2013-02-17 18:04:00,
2013-02-17 13:09:00,33.7,10.8,29.68,NW,319,3.0,25.0,38,0.00,,---,0.00,VWS V14.01,2013-02-17 18:09:00,
2013-02-17 13:14:00,34.1,11.2,29.68,North,355,5.0,25.0,38,0.00,,---,0.00,VWS V14.01,2013-02-17 18:14:00,
2013-02-17 13:19:00,33.4,9.9,29.68,NNW,333,3.0,25.0,37,0.00,,---,0.00,VWS V14.01,2013-02-17 18:19:00,
2013-02-17 13:24:00,33.7,10.8,29.68,NNE,15,1.0,25.0,38,0.00,,---,0.00,VWS V14.01,2013-02-17 18:24:00,
2013-02-17 13:29:00,33.7,10.2,29.68,NNW,337,5.0,25.0,37,0.00,,---,0.00,VWS V14.01,2013-02-17 18:29:00,
2013-02-17 13:34:00,33.8,11.5,29.68,WSW,242,19.0,22.0,39,0.00,,---,0.00,VWS V14.01,2013-02-17 18:34:00,
2013-02-17 13:39:00,33.8,10.9,29.68,WSW,245,5.0,27.0,38,0.00,,---,0.00,VWS V14.01,2013-02-17 18:39:00,
2013-02-17 13:44:00,33.5,10.6,29.69,NW,318,1.0,27.0,38,0.00,,---,0.00,VWS V14.01,2013-02-17 18:44:00,
2013-02-17 13:49:00,34.0,11.1,29.69,West,273,11.0,27.0,38,0.00,,---,0.00,VWS V14.01,2013-02-17 18:49:00,
2013-02-17 13:54:00,33.9,11.6,29.69,NW,315,3.0,27.0,39,0.00,,---,0.00,VWS V14.01,2013-02-17 18:54:00,
2013-02-17 13:59:00,33.6,10.7,29.69,West,273,7.0,27.0,38,0.00,,---,0.00,VWS V14.01,2013-02-17 18:59:00,
2013-02-17 14:04:00,33.6,11.3,29.69,NW,306,2.0,20.0,39,0.00,,---,0.00,VWS V14.01,2013-02-17 19:04:00,
2013-02-17 14:09:00,33.9,11.0,29.69,NNW,348,7.0,21.0,38,0.00,,---,0.00,VWS V14.01,2013-02-17 19:09:00,
2013-02-17 14:14:00,34.2,11.8,29.70,SSE,152,1.0,21.0,39,0.00,,---,0.00,VWS V14.01,2013-02-17 19:14:00,
2013-02-17 14:19:00,34.0,11.1,29.70,NNW,328,4.0,21.0,38,0.00,,---,0.00,VWS V14.01,2013-02-17 19:19:00,
2013-02-17 14:24:00,33.7,10.2,29.70,NW,313,4.0,24.0,37,0.00,,---,0.00,VWS V14.01,2013-02-17 19:24:00,
2013-02-17 14:29:00,33.6,10.1,29.70,West,273,9.0,24.0,37,0.00,,---,0.00,VWS V14.01,2013-02-17 19:29:00,
2013-02-17 14:34:00,33.6,10.7,29.70,West,259,13.0,14.0,38,0.00,,---,0.00,VWS V14.01,2013-02-17 19:34:00,
2013-02-17 14:39:00,33.5,10.0,29.70,NNW,345,2.0,21.0,37,0.00,,---,0.00,VWS V14.01,2013-02-17 19:39:00,
2013-02-17 14:44:00,33.6,10.1,29.70,NNW,331,3.0,11.0,37,0.00,,---,0.00,VWS V14.01,2013-02-17 19:44:00,
2013-02-17 14:49:00,33.8,10.3,29.70,NE,34,3.0,14.0,37,0.00,,---,0.00,VWS V14.01,2013-02-17 19:49:00,
2013-02-17 14:54:00,34.0,10.5,29.70,SSW,196,3.0,15.0,37,0.00,,---,0.00,VWS V14.01,2013-02-17 19:54:00,
2013-02-17 14:59:00,34.1,11.2,29.70,SSW,211,14.0,21.0,38,0.00,,---,0.00,VWS V14.01,2013-02-17 19:59:00,
2013-02-17 15:04:00,33.8,10.9,29.71,NNE,14,9.0,16.0,38,0.00,,---,0.00,VWS V14.01,2013-02-17 20:04:00,
2013-02-17 15:09:00,33.3,9.9,29.71,NNW,329,4.0,22.0,37,0.00,,---,0.00,VWS V14.01,2013-02-17 20:09:00,
2013-02-17 15:14:00,32.9,9.5,29.71,NNW,329,4.0,22.0,37,0.00,,---,0.00,VWS V14.01,2013-02-17 20:14:00,
2013-02-17 15:19:00,32.9,10.1,29.72,NNW,332,6.0,22.0,38,0.00,,---,0.00,VWS V14.01,2013-02-17 20:19:00,
2013-02-17 15:24:00,32.9,9.5,29.72,ESE,121,5.0,22.0,37,0.00,,---,0.00,VWS V14.01,2013-02-17 20:24:00,
2013-02-17 15:29:00,32.8,10.0,29.72,NW,304,11.0,22.0,38,0.00,,---,0.00,VWS V14.01,2013-02-17 20:29:00,
2013-02-17 15:34:00,33.1,10.3,29.72,NNW,338,7.0,13.0,38,0.00,,---,0.00,VWS V14.01,2013-02-17 20:34:00,
2013-02-17 15:39:00,33.3,10.4,29.72,WNW,288,4.0,13.0,38,0.00,,---,0.00,VWS V14.01,2013-02-17 20:39:00,
2013-02-17 15:44:00,32.7,9.9,29.72,SW,227,9.0,20.0,38,0.00,,---,0.00,VWS V14.01,2013-02-17 20:44:00,
2013-02-17 15:49:00,32.4,10.2,29.73,West,276,9.0,21.0,39,0.00,,---,0.00,VWS V14.01,2013-02-17 20:49:00,
2013-02-17 15:54:00,32.4,9.6,29.73,NNW,342,1.0,21.0,38,0.00,,---,0.00,VWS V14.01,2013-02-17 20:54:00,
2013-02-17 15:59:00,32.3,9.6,29.74,West,275,5.0,21.0,38,0.00,,---,0.00,VWS V14.01,2013-02-17 20:59:00,
2013-02-17 16:04:00,32.2,10.0,29.74,West,261,12.0,16.0,39,0.00,,---,0.00,VWS V14.01,2013-02-17 21:04:00,
2013-02-17 16:09:00,31.7,9.0,29.74,WSW,241,4.0,28.0,38,0.00,,---,0.00,VWS V14.01,2013-02-17 21:09:00,
2013-02-17 16:14:00,31.5,9.4,29.74,WSW,255,4.0,28.0,39,0.00,,---,0.00,VWS V14.01,2013-02-17 21:14:00,
2013-02-17 16:19:00,31.3,9.8,29.74,West,273,3.0,28.0,40,0.00,,---,0.00,VWS V14.01,2013-02-17 21:19:00,
2013-02-17 16:24:00,31.0,9.5,29.74,West,265,23.0,28.0,40,0.00,,---,0.00,VWS V14.01,2013-02-17 21:24:00,
2013-02-17 16:29:00,30.6,9.2,29.74,WSW,254,10.0,28.0,40,0.00,,---,0.00,VWS V14.01,2013-02-17 21:29:00,
2013-02-17 16:34:00,30.2,8.8,29.75,WNW,288,6.0,17.0,40,0.00,,---,0.00,VWS V14.01,2013-02-17 21:34:00,
2013-02-17 16:39:00,29.7,7.8,29.75,West,271,16.0,22.0,39,0.00,,---,0.00,VWS V14.01,2013-02-17 21:39:00,
2013-02-17 16:44:00,29.3,8.0,29.76,WNW,295,6.0,22.0,40,0.00,,---,0.00,VWS V14.01,2013-02-17 21:44:00,
2013-02-17 16:49:00,28.8,8.1,29.76,NNW,341,9.0,24.0,41,0.00,,---,0.00,VWS V14.01,2013-02-17 21:49:00,
2013-02-17 16:54:00,28.6,7.9,29.76,West,264,5.0,24.0,41,0.00,,---,0.00,VWS V14.01,2013-02-17 21:54:00,
2013-02-17 16:59:00,28.5,8.3,29.77,NE,51,3.0,24.0,42,0.00,,---,0.00,VWS V14.01,2013-02-17 21:59:00,
2013-02-17 17:04:00,28.3,8.7,29.77,West,259,12.0,20.0,43,0.00,,---,0.00,VWS V14.01,2013-02-17 22:04:00,
2013-02-17 17:09:00,28.2,8.1,29.77,WSW,253,12.0,20.0,42,0.00,,---,0.00,VWS V14.01,2013-02-17 22:09:00,
2013-02-17 17:14:00,27.9,8.3,29.78,WSW,237,6.0,24.0,43,0.00,,---,0.00,VWS V14.01,2013-02-17 22:14:00,
2013-02-17 17:19:00,27.7,8.1,29.77,WNW,302,6.0,27.0,43,0.00,,---,0.00,VWS V14.01,2013-02-17 22:19:00,
2013-02-17 17:24:00,27.6,8.0,29.78,WSW,251,6.0,27.0,43,0.00,,---,0.00,VWS V14.01,2013-02-17 22:24:00,
2013-02-17 17:29:00,27.4,8.4,29.78,North,355,4.0,27.0,44,0.00,,---,0.00,VWS V14.01,2013-02-17 22:29:00,
2013-02-17 17:34:00,27.2,8.2,29.79,West,274,4.0,22.0,44,0.00,,---,0.00,VWS V14.01,2013-02-17 22:34:00,
2013-02-17 17:39:00,27.0,8.0,29.80,WNW,298,4.0,22.0,44,0.00,,---,0.00,VWS V14.01,2013-02-17 22:39:00,
2013-02-17 17:44:00,26.8,8.3,29.80,WSW,257,16.0,22.0,45,0.00,,---,0.00,VWS V14.01,2013-02-17 22:44:00,
2013-02-17 17:49:00,26.7,8.2,29.80,NNW,331,9.0,22.0,45,0.00,,---,0.00,VWS V14.01,2013-02-17 22:49:00,
2013-02-17 17:54:00,26.5,8.5,29.81,WNW,295,3.0,22.0,46,0.00,,---,0.00,VWS V14.01,2013-02-17 22:54:00,
2013-02-17 17:59:00,26.4,8.4,29.81,WSW,254,20.0,24.0,46,0.00,,---,0.00,VWS V14.01,2013-02-17 22:59:00,
2013-02-17 18:04:00,26.3,7.9,29.82,NNE,15,0.0,19.0,45,0.00,,---,0.00,VWS V14.01,2013-02-17 23:04:00,
2013-02-17 18:09:00,26.2,7.8,29.82,North,355,4.0,19.0,45,0.00,,---,0.00,VWS V14.01,2013-02-17 23:09:00,
2013-02-17 18:14:00,26.0,7.6,29.82,North,355,9.0,20.0,45,0.00,,---,0.00,VWS V14.01,2013-02-17 23:14:00,
2013-02-17 18:19:00,25.9,7.5,29.82,NNW,339,3.0,20.0,45,0.00,,---,0.00,VWS V14.01,2013-02-17 23:19:00,
2013-02-17 18:24:00,25.8,7.4,29.83,ENE,67,5.0,21.0,45,0.00,,---,0.00,VWS V14.01,2013-02-17 23:24:00,
2013-02-17 18:29:00,25.7,6.8,29.83,North,355,1.0,21.0,44,0.00,,---,0.00,VWS V14.01,2013-02-17 23:29:00,
2013-02-17 18:34:00,25.5,7.1,29.83,WNW,299,6.0,15.0,45,0.00,,---,0.00,VWS V14.01,2013-02-17 23:34:00,
2013-02-17 18:39:00,25.4,7.0,29.84,NNE,19,2.0,15.0,45,0.00,,---,0.00,VWS V14.01,2013-02-17 23:39:00,
2013-02-17 18:44:00,25.3,7.4,29.84,WNW,297,0.0,18.0,46,0.00,,---,0.00,VWS V14.01,2013-02-17 23:44:00,
2013-02-17 18:49:00,25.2,6.8,29.85,NNW,343,1.0,18.0,45,0.00,,---,0.00,VWS V14.01,2013-02-17 23:49:00,
2013-02-17 18:54:00,25.1,7.2,29.84,WNW,295,3.0,18.0,46,0.00,,---,0.00,VWS V14.01,2013-02-17 23:54:00,
2013-02-17 18:59:00,24.9,7.1,29.85,NNW,341,3.0,18.0,46,0.00,,---,0.00,VWS V14.01,2013-02-17 23:59:00,
2013-02-17 19:04:00,24.8,7.0,29.85,NW,309,5.0,16.0,46,0.00,,---,0.00,VWS V14.01,2013-02-18 00:04:00,
2013-02-17 19:09:00,24.7,6.9,29.85,SW,217,5.0,16.0,46,0.00,,---,0.00,VWS V14.01,2013-02-18 00:09:00,
2013-02-17 19:14:00,24.5,7.2,29.85,NW,323,0.0,16.0,47,0.00,,---,0.00,VWS V14.01,2013-02-18 00:14:00,
2013-02-17 19:19:00,24.5,7.6,29.86,West,281,12.0,17.0,48,0.00,,---,0.00,VWS V14.01,2013-02-18 00:19:00,
2013-02-17 19:24:00,24.3,7.4,29.86,WNW,302,3.0,21.0,48,0.00,,---,0.00,VWS V14.01,2013-02-18 00:24:00,
2013-02-17 19:29:00,24.1,7.7,29.86,NW,315,6.0,21.0,49,0.00,,---,0.00,VWS V14.01,2013-02-18 00:29:00,
2013-02-17 19:34:00,23.9,8.0,29.86,North,360,6.0,10.0,50,0.00,,---,0.00,VWS V14.01,2013-02-18 00:34:00,
2013-02-17 19:39:00,23.6,7.3,29.86,WSW,252,10.0,19.0,49,0.00,,---,0.00,VWS V14.01,2013-02-18 00:39:00,
2013-02-17 19:44:00,23.5,7.6,29.86,NW,306,0.0,20.0,50,0.00,,---,0.00,VWS V14.01,2013-02-18 00:44:00,
2013-02-17 19:49:00,23.3,7.4,29.87,NNW,338,5.0,22.0,50,0.00,,---,0.00,VWS V14.01,2013-02-18 00:49:00,
2013-02-17 19:54:00,23.2,7.3,29.87,WNW,294,10.0,24.0,50,0.00,,---,0.00,VWS V14.01,2013-02-18 00:54:00,
2013-02-17 19:59:00,23.0,7.1,29.87,West,279,2.0,24.0,50,0.00,,---,0.00,VWS V14.01,2013-02-18 00:59:00,
2013-02-17 20:04:00,22.8,7.0,29.88,WSW,257,4.0,16.0,50,0.00,,---,0.00,VWS V14.01,2013-02-18 01:04:00,
2013-02-17 20:09:00,22.7,6.9,29.88,WSW,254,16.0,19.0,50,0.00,,---,0.00,VWS V14.01,2013-02-18 01:09:00,
2013-02-17 20:14:00,22.5,7.1,29.88,WNW,301,9.0,19.0,51,0.00,,---,0.00,VWS V14.01,2013-02-18 01:14:00,
2013-02-17 20:19:00,22.4,7.0,29.89,WSW,257,10.0,24.0,51,0.00,,---,0.00,VWS V14.01,2013-02-18 01:19:00,
2013-02-17 20:24:00,22.2,6.8,29.89,WSW,257,4.0,24.0,51,0.00,,---,0.00,VWS V14.01,2013-02-18 01:24:00,
2013-02-17 20:29:00,22.1,7.2,29.88,NNW,340,6.0,24.0,52,0.00,,---,0.00,VWS V14.01,2013-02-18 01:29:00,
2013-02-17 20:34:00,22.0,6.7,29.89,NW,305,0.0,11.0,51,0.00,,---,0.00,VWS V14.01,2013-02-18 01:34:00,
2013-02-17 20:39:00,21.8,6.5,29.89,WSW,249,13.0,20.0,51,0.00,,---,0.00,VWS V14.01,2013-02-18 01:39:00,
2013-02-17 20:44:00,21.6,6.3,29.90,NNW,331,7.0,25.0,51,0.00,,---,0.00,VWS V14.01,2013-02-18 01:44:00,
2013-02-17 20:49:00,21.3,6.0,29.90,West,271,2.0,26.0,51,0.00,,---,0.00,VWS V14.01,2013-02-18 01:49:00,
2013-02-17 20:54:00,21.1,5.8,29.91,SW,215,4.0,26.0,51,0.00,,---,0.00,VWS V14.01,2013-02-18 01:54:00,
2013-02-17 20:59:00,20.8,5.5,29.91,WNW,298,9.0,26.0,51,0.00,,---,0.00,VWS V14.01,2013-02-18 01:59:00,
2013-02-17 21:04:00,20.6,5.8,29.92,WSW,253,3.0,24.0,52,0.00,,---,0.00,VWS V14.01,2013-02-18 02:04:00,
2013-02-17 21:09:00,20.4,5.6,29.92,WSW,255,9.0,24.0,52,0.00,,---,0.00,VWS V14.01,2013-02-18 02:09:00,
2013-02-17 21:14:00,20.2,5.4,29.92,NW,304,6.0,24.0,52,0.00,,---,0.00,VWS V14.01,2013-02-18 02:14:00,
2013-02-17 21:19:00,20.0,5.6,29.92,West,281,5.0,24.0,53,0.00,,---,0.00,VWS V14.01,2013-02-18 02:19:00,
2013-02-17 21:24:00,19.8,5.4,29.93,NE,44,0.0,24.0,53,0.00,,---,0.00,VWS V14.01,2013-02-18 02:24:00,
2013-02-17 21:29:00,19.7,5.3,29.93,NW,316,4.0,24.0,53,0.00,,---,0.00,VWS V14.01,2013-02-18 02:29:00,
2013-02-17 21:34:00,19.7,5.3,29.93,WSW,240,15.0,20.0,53,0.00,,---,0.00,VWS V14.01,2013-02-18 02:34:00,
2013-02-17 21:39:00,19.6,4.8,29.94,NNW,331,4.0,22.0,52,0.00,,---,0.00,VWS V14.01,2013-02-18 02:39:00,
2013-02-17 21:44:00,19.4,5.1,29.94,SW,226,6.0,22.0,53,0.00,,---,0.00,VWS V14.01,2013-02-18 02:44:00,
2013-02-17 21:49:00,19.4,5.1,29.94,SSW,213,10.0,22.0,53,0.00,,---,0.00,VWS V14.01,2013-02-18 02:49:00,
2013-02-17 21:54:00,19.3,5.0,29.94,NW,315,4.0,33.0,53,0.00,,---,0.00,VWS V14.01,2013-02-18 02:54:00,
2013-02-17 21:59:00,19.3,5.0,29.94,WNW,291,11.0,33.0,53,0.00,,---,0.00,VWS V14.01,2013-02-18 02:59:00,
2013-02-17 22:04:00,19.3,5.0,29.94,WNW,293,3.0,13.0,53,0.00,,---,0.00,VWS V14.01,2013-02-18 03:04:00,
2013-02-17 22:09:00,19.2,4.9,29.94,WNW,290,0.0,15.0,53,0.00,,---,0.00,VWS V14.01,2013-02-18 03:09:00,
2013-02-17 22:14:00,19.2,4.9,29.94,NW,326,15.0,26.0,53,0.00,,---,0.00,VWS V14.01,2013-02-18 03:14:00,
2013-02-17 22:19:00,19.2,5.3,29.95,West,261,5.0,26.0,54,0.00,,---,0.00,VWS V14.01,2013-02-18 03:19:00,
2013-02-17 22:24:00,19.1,5.2,29.95,WNW,302,2.0,26.0,54,0.00,,---,0.00,VWS V14.01,2013-02-18 03:24:00,
2013-02-17 22:29:00,19.1,5.2,29.95,WSW,256,14.0,26.0,54,0.00,,---,0.00,VWS V14.01,2013-02-18 03:29:00,
2013-02-17 22:34:00,19.1,5.2,29.95,West,281,3.0,13.0,54,0.00,,---,0.00,VWS V14.01,2013-02-18 03:34:00,
2013-02-17 22:39:00,19.1,5.2,29.95,WNW,290,10.0,14.0,54,0.00,,---,0.00,VWS V14.01,2013-02-18 03:39:00,
2013-02-17 22:44:00,19.1,5.2,29.95,WSW,244,13.0,25.0,54,0.00,,---,0.00,VWS V14.01,2013-02-18 03:44:00,
2013-02-17 22:49:00,19.1,5.2,29.96,West,267,6.0,25.0,54,0.00,,---,0.00,VWS V14.01,2013-02-18 03:49:00,
2013-02-17 22:54:00,19.1,5.6,29.95,WNW,295,5.0,25.0,55,0.00,,---,0.00,VWS V14.01,2013-02-18 03:54:00,
2013-02-17 22:59:00,19.1,5.6,29.96,NW,313,7.0,25.0,55,0.00,,---,0.00,VWS V14.01,2013-02-18 03:59:00,
2013-02-17 23:04:00,19.2,5.7,29.96,WNW,290,3.0,17.0,55,0.00,,---,0.00,VWS V14.01,2013-02-18 04:04:00,
2013-02-17 23:09:00,19.2,5.7,29.95,West,275,18.0,20.0,55,0.00,,---,0.00,VWS V14.01,2013-02-18 04:09:00,
2013-02-17 23:14:00,19.3,5.8,29.96,WNW,302,12.0,20.0,55,0.00,,---,0.00,VWS V14.01,2013-02-18 04:14:00,
2013-02-17 23:19:00,19.3,5.8,29.95,SW,223,4.0,20.0,55,0.00,,---,0.00,VWS V14.01,2013-02-18 04:19:00,
2013-02-17 23:24:00,19.4,5.9,29.96,WSW,248,2.0,20.0,55,0.00,,---,0.00,VWS V14.01,2013-02-18 04:24:00,
2013-02-17 23:29:00,19.5,6.0,29.96,WSW,252,2.0,20.0,55,0.00,,---,0.00,VWS V14.01,2013-02-18 04:29:00,
2013-02-17 23:34:00,19.5,6.0,29.96,ENE,61,4.0,14.0,55,0.00,,---,0.00,VWS V14.01,2013-02-18 04:34:00,
2013-02-17 23:39:00,19.5,6.0,29.96,SW,229,3.0,23.0,55,0.00,,---,0.00,VWS V14.01,2013-02-18 04:39:00,
2013-02-17 23:44:00,19.6,6.1,29.97,NW,325,4.0,25.0,55,0.00,,---,0.00,VWS V14.01,2013-02-18 04:44:00,
2013-02-17 23:49:00,19.7,6.2,29.97,NNE,28,4.0,25.0,55,0.00,,---,0.00,VWS V14.01,2013-02-18 04:49:00,
2013-02-17 23:54:00,19.7,6.2,29.97,West,261,3.0,25.0,55,0.00,,---,0.00,VWS V14.01,2013-02-18 04:54:00,
2013-02-17 23:59:00,19.7,6.2,29.97,SW,234,2.0,25.0,55,0.00,,---,0.00,VWS V14.01,2013-02-18 04:59:00,